Wetbulb
66.46 68.00 68.16 68.33 68.54 68.47 70.06 71.23 71.76 71.93 72.26 72.83 73.53 73.88 74.27 75.05 75.32 74.07 74.32 75.39 75.51 75.69 76.19 76.82 78.05 78.56 78.70 78.25 77.82 77.13 77.38 76.38 76.11
65.36 66.70 67.26 68.45 69.51 68.08 69.46 70.66 71.70 72.09 72.60 73.08 73.56 73.76 74.71 74.81 74.96 75.06 75.13 76.41 76.80 76.12 77.41 77.29 78.08 78.45 78.67 78.47 77.71 77.41 77.56 75.94 76.05
64.71 65.90 66.71 67.70 69.09 69.89 69.25 69.78 71.34 72.43 72.90 72.97 73.63 74.11 74.48 74.39 74.63 75.29 75.55 76.38 76.54 77.04 77.75 78.28 78.45 78.58 78.41 78.39 78.21 77.64 77.22 76.44 76.99
66.11 66.03 66.08 67.31 67.81 69.46 69.96 70.11 70.35 71.30 72.20 72.81 73.28 73.68 74.53 74.87 74.43 74.72 75.24 75.18 76.17 76.95 77.49 78.22 78.31 79.05 78.36 78.69 78.27 78.41 77.45 77.06 77.15
66.80 67.60 69.81 71.58 72.34 72.67 70.35 69.91 70.77 71.79 71.74 72.40 73.50 74.43 74.98 74.43 74.90 75.03 74.41 74.92 75.67 76.79 77.19 77.97 78.37 78.48 78.47 78.53 78.26 78.47 77.98 76.88 76.71
69.10 69.69 69.90 70.08 70.68 71.70 70.48 69.99 70.76 71.45 72.67 72.70 73.80 74.39 73.87 73.98 73.92 74.29 74.60 75.10 75.74 76.68 76.88 77.32 77.26 77.58 77.78 77.96 77.82 78.19 78.40 78.40 78.18
68.64 68.69 68.71 69.25 69.85 70.09 70.78 70.91 70.68 71.89 72.06 72.82 73.36 73.36 73.41 73.74 74.30 74.87 75.35 76.30 76.94 76.89 77.68 77.69 77.86 77.95 77.95 77.96 77.83 77.92 78.05 78.29 77.89
67.72 67.83 68.11 68.47 69.01 69.77 70.77 71.33 72.09 72.51 72.44 73.60 73.57 73.88 73.83 74.19 75.10 75.71 76.57 77.05 77.42 77.77 78.01 78.18 78.45 78.28 78.07 78.07 77.77 77.37 77.86 78.17 78.05
66.78 67.47 67.64 68.40 68.95 69.33 70.31 71.12 71.47 72.33 72.61 73.23 74.74 74.85 74.66 75.91 76.50 76.77 76.55 75.65 74.40 75.43 76.05 76.67 77.44 76.80 76.70 75.62 75.51 70.68 70.58 74.78 77.61
65.02 66.14 67.41 68.25 68.89 70.09 70.98 71.47 72.03 71.50 71.94 72.64 73.92 73.87 73.75 74.21 73.70 72.70 69.12 71.27 71.13 73.15 74.17 74.36 76.00 75.52 75.27 74.58 74.67 69.95 68.52 69.69 75.02
65.50 66.26 66.86 67.94 68.63 69.37 69.87 70.17 69.62 70.40 71.16 72.36 72.85 72.70 71.99 70.07 71.35 71.56 71.90 71.40 71.99 72.34 73.21 74.12 75.20 75.52 74.06 71.07 71.40 66.05 64.90 66.92 72.31
66.57 67.90 68.02 67.92 68.37 68.19 68.14 67.89 68.52 69.27 68.86 69.97 72.47 72.65 72.76 72.43 72.38 71.65 72.25 72.77 72.21 72.06 72.31 73.08 72.88 73.87 73.83 72.90 71.99 63.01 62.79 65.74 71.00
67.35 68.16 68.77 69.01 68.89 69.11 69.35 69.21 69.39 68.83 68.78 68.60 68.27 69.08 70.21 71.00 71.89 72.33 72.39 72.26 71.57 72.24 71.52 71.15 70.79 70.32 71.18 68.83 71.41 63.99 61.88 64.94 71.04
69.13 68.79 68.31 69.12 69.38 69.72 69.88 70.18 69.88 69.29 69.46 68.65 69.64 70.03 70.79 70.95 71.25 71.47 71.50 71.49 72.93 71.84 70.53 70.28 70.45 69.86 70.31 70.33 69.13 69.80 60.80 60.09 68.59
69.26 69.07 68.42 68.18 69.10 69.26 69.90 70.15 69.84 69.61 69.44 70.09 70.95 71.47 71.45 72.31 72.85 72.57 72.55 72.75 72.75 71.63 71.23 71.01 70.80 70.67 70.37 71.04 71.92 63.46 62.43 59.22 59.46
69.79 70.00 70.00 69.88 69.58 69.41 70.17 70.36 70.44 69.95 70.45 70.31 71.49 71.48 71.51 71.20 71.86 72.55 72.93 72.82 72.63 71.31 70.92 69.47 69.68 69.56 70.01 70.15 71.13 71.33 60.09 59.55 58.52
69.56 70.24 69.37 69.23 69.19 68.89 69.51 70.52 70.55 70.61 70.62 70.44 70.32 71.35 71.82 71.59 71.40 68.88 70.41 70.04 69.23 68.60 69.04 68.16 68.32 68.94 69.37 70.07 70.06 70.08 69.70 67.98 67.62
68.50 68.95 68.95 69.69 69.83 70.30 70.19 70.68 70.79 71.18 71.46 71.27 71.34 72.06 71.60 71.00 68.91 69.91 69.55 67.37 66.44 66.03 66.91 61.78 65.97 67.04 66.46 69.54 70.02 69.05 61.26 62.01 67.78
68.18 68.61 69.71 70.29 70.79 71.01 71.14 70.83 71.96 72.18 72.06 71.88 72.26 70.94 69.92 69.43 68.71 68.76 69.12 67.23 66.40 53.04 52.14 50.83 50.33 48.33 54.02 60.15 57.67 50.83 50.51 50.14 50.87
66.02 70.02 70.25 71.20 71.21 72.10 72.50 71.70 72.17 73.33 73.16 73.19 72.76 71.33 71.66 70.57 65.40 68.63 67.73 67.71 67.93 67.85 62.55 52.32 50.87 47.24 49.06 49.06 46.05 47.24 46.52 48.15 47.79
MSLP
1010.76 1010.84 1010.96 1011.15 1011.38 1011.67 1011.96 1012.17 1012.60 1013.08 1013.58 1014.04 1014.57 1015.03 1015.49 1016.11 1016.56 1016.88 1017.07 1017.19 1017.28 1017.37 1017.38 1017.43 1017.51 1017.80 1018.19 1018.50 1018.72 1018.87 1019.16 1019.21 1019.27
1010.73 1010.83 1010.97 1011.26 1011.48 1011.68 1011.75 1011.84 1012.09 1012.43 1012.94 1013.34 1013.92 1014.30 1014.97 1015.54 1016.17 1016.50 1016.58 1016.94 1017.15 1017.18 1017.27 1017.22 1017.40 1017.66 1018.00 1018.14 1018.43 1018.60 1018.80 1018.90 1019.09
1010.88 1011.06 1011.19 1011.17 1011.24 1011.20 1011.36 1011.48 1011.77 1012.27 1012.55 1012.88 1013.19 1013.65 1014.18 1014.65 1015.31 1015.93 1016.16 1016.44 1016.63 1016.83 1016.92 1017.06 1017.20 1017.54 1017.73 1017.86 1017.97 1018.22 1018.61 1018.70 1018.89
1011.06 1011.14 1011.06 1010.86 1010.97 1011.06 1011.05 1011.21 1011.48 1011.77 1012.26 1012.54 1012.87 1013.21 1013.65 1014.12 1014.49 1015.05 1015.77 1015.99 1016.04 1016.18 1016.62 1017.01 1017.23 1017.39 1017.28 1017.67 1017.88 1017.96 1018.23 1018.46 1018.60
1011.23 1011.27 1011.25 1011.16 1011.10 1010.89 1010.76 1010.79 1011.08 1011.23 1011.65 1011.99 1012.28 1012.75 1013.28 1013.53 1014.03 1014.49 1014.78 1015.25 1015.54 1015.82 1016.11 1016.38 1016.62 1016.92 1017.23 1017.39 1017.50 1017.55 1017.63 1017.90 1017.98
1011.55 1011.61 1011.53 1011.32 1010.97 1010.79 1010.87 1010.91 1010.86 1011.17 1011.35 1011.56 1011.86 1012.36 1012.77 1013.05 1013.48 1014.04 1014.35 1014.72 1015.11 1015.50 1015.81 1015.96 1016.06 1016.31 1016.46 1016.64 1016.89 1017.09 1017.17 1017.31 1017.39
1011.50 1011.44 1011.35 1011.23 1011.24 1011.29 1011.34 1011.15 1011.00 1011.12 1011.20 1011.53 1011.76 1011.97 1012.35 1012.64 1013.02 1013.34 1013.59 1014.15 1014.65 1014.94 1015.24 1015.51 1015.73 1015.81 1015.81 1015.99 1016.23 1016.20 1016.42 1016.71 1016.64
1011.76 1011.83 1011.82 1011.83 1011.72 1011.67 1011.79 1011.58 1011.41 1011.30 1011.37 1011.62 1011.67 1012.09 1012.41 1012.58 1012.99 1013.27 1013.48 1013.58 1013.95 1014.34 1014.60 1014.71 1015.00 1015.28 1015.33 1015.55 1015.91 1016.09 1015.92 1016.01 1016.04
1011.99 1012.18 1012.36 1012.27 1012.00 1012.00 1012.35 1012.39 1012.44 1012.54 1012.47 1012.40 1012.31 1012.31 1012.40 1012.61 1012.91 1013.24 1013.42 1014.10 1014.46 1014.58 1014.33 1014.02 1014.39 1014.30 1014.78 1015.02 1015.02 1015.42 1016.06 1016.11 1015.62
1011.94 1012.17 1012.41 1012.67 1012.88 1012.92 1013.01 1013.14 1013.20 1013.19 1013.14 1013.05 1012.91 1012.98 1013.12 1013.32 1013.58 1014.03 1014.86 1014.49 1014.87 1014.11 1015.23 1014.48 1013.56 1013.80 1013.84 1014.09 1013.85 1014.13 1015.16 1015.67 1015.52
1011.70 1012.06 1012.37 1012.66 1013.00 1013.36 1013.53 1013.58 1013.56 1013.51 1013.40 1013.30 1013.27 1013.43 1013.50 1013.58 1013.52 1013.72 1014.02 1014.22 1014.09 1014.38 1014.60 1013.81 1013.10 1013.50 1013.47 1013.70 1013.85 1013.25 1014.40 1014.68 1014.94
1011.77 1011.88 1012.32 1012.64 1013.05 1013.36 1013.57 1013.52 1013.59 1013.51 1013.55 1013.53 1013.34 1013.30 1013.53 1013.54 1013.55 1013.50 1013.68 1013.71 1013.85 1014.01 1013.39 1012.98 1013.36 1013.31 1013.13 1012.79 1012.90 1013.38 1013.81 1013.72 1014.54
1011.68 1011.85 1012.08 1012.37 1012.72 1013.05 1013.20 1013.42 1013.35 1013.27 1013.46 1013.61 1013.55 1013.51 1013.60 1013.76 1013.80 1013.81 1013.74 1013.67 1013.54 1013.36 1013.17 1013.17 1013.50 1013.63 1013.19 1013.39 1013.68 1013.67 1014.00 1013.37 1013.74
1011.47 1011.76 1012.08 1012.38 1012.55 1012.66 1012.85 1013.13 1013.21 1013.14 1013.16 1013.29 1013.64 1013.66 1013.76 1013.89 1013.76 1013.73 1013.69 1013.73 1013.62 1013.58 1013.54 1013.30 1013.12 1013.09 1013.26 1013.33 1013.19 1013.11 1013.23 1013.36 1013.86
1011.20 1011.62 1012.03 1012.25 1012.28 1012.41 1012.64 1012.94 1013.07 1013.09 1013.15 1013.36 1013.51 1013.63 1013.63 1013.59 1013.56 1013.50 1013.34 1013.23 1013.21 1013.26 1013.23 1013.12 1013.15 1013.14 1012.88 1012.80 1013.07 1013.39 1013.77 1014.04 1014.11
1010.79 1011.15 1011.71 1011.91 1012.14 1012.44 1012.74 1013.00 1013.14 1013.09 1013.15 1013.30 1013.37 1013.43 1013.43 1013.41 1013.38 1013.33 1013.34 1013.37 1013.45 1013.44 1013.58 1013.63 1013.42 1013.27 1012.98 1012.69 1012.77 1013.07 1013.59 1013.71 1013.74
1010.66 1011.15 1011.58 1011.95 1012.12 1012.36 1012.70 1013.05 1013.16 1013.19 1013.28 1013.42 1013.40 1013.37 1013.43 1013.55 1013.52 1013.49 1013.49 1013.49 1013.68 1013.82 1013.87 1014.00 1013.99 1013.86 1013.40 1013.05 1013.04 1013.10 1013.16 1013.19 1013.30
1011.08 1011.42 1011.68 1012.03 1012.30 1012.54 1012.73 1012.97 1013.01 1013.03 1013.26 1013.41 1013.33 1013.38 1013.46 1013.55 1013.64 1013.63 1013.70 1014.17 1014.46 1014.58 1014.67 1015.02 1014.96 1014.74 1014.40 1013.56 1013.11 1013.42 1013.57 1013.45 1013.38
1011.43 1011.65 1011.93 1012.20 1012.36 1012.48 1012.67 1012.83 1012.84 1012.89 1013.13 1013.28 1013.36 1013.45 1013.42 1013.49 1013.54 1013.62 1013.85 1014.12 1014.53 1015.17 1015.27 1015.31 1015.39 1015.35 1015.17 1014.59 1014.19 1014.00 1014.01 1013.87 1013.91
1011.59 1011.83 1012.03 1012.14 1012.29 1012.41 1012.46 1012.54 1012.52 1012.63 1012.93 1013.07 1013.17 1013.28 1013.44 1013.54 1013.64 1013.59 1013.82 1013.90 1014.14 1014.38 1014.99 1014.95 1014.98 1015.00 1014.82 1015.20 1014.79 1014.47 1014.50 1014.20 1014.23
Wind_Speed
6 9 13 13 10 11 13 14 14 14 13 14 14 14 14 11 11 8 8 8 5 4 4 3 4 6 6 6 6 6 5 5 6
4 6 7 8 9 9 12 14 16 16 15 14 13 14 11 12 11 11 9 9 6 5 4 4 5 6 7 7 6 7 6 6 6
7 4 4 3 6 10 11 13 12 14 14 14 14 14 13 11 12 12 11 9 10 8 6 5 5 7 7 7 8 8 8 7 7
5 3 1 4 6 8 10 10 12 12 14 14 13 13 12 11 12 12 11 11 11 10 8 6 6 7 7 7 8 9 9 9 7
4 4 4 6 7 7 8 10 11 13 12 14 14 12 11 12 10 10 12 12 11 9 9 9 8 7 7 8 8 10 12 11 10
5 5 5 5 4 4 4 7 10 11 11 12 11 11 12 11 11 11 10 9 9 8 8 9 9 9 10 10 9 10 11 12 12
8 10 10 8 6 5 5 4 5 7 8 9 10 11 12 12 12 11 10 9 8 8 8 8 8 10 10 11 10 11 11 11 13
6 8 9 8 7 7 7 7 6 2 4 6 8 8 8 9 8 9 9 10 9 8 8 7 7 8 8 7 8 9 11 11 13
6 7 7 7 8 8 9 10 9 8 8 7 5 6 6 5 7 8 9 7 4 3 6 6 5 6 6 6 4 4 8 13 13
9 7 7 7 6 6 7 7 8 8 7 7 5 4 4 5 5 4 4 4 0 4 6 2 5 7 9 7 7 10 9 12 13
7 8 7 7 6 5 4 4 5 5 6 4 3 5 5 5 4 4 4 6 6 7 7 3 2 8 7 7 6 6 5 6 8
3 6 6 6 6 5 4 4 4 4 4 3 1 4 4 4 4 6 6 4 5 5 3 2 3 5 7 8 7 1 4 5 6
6 3 3 3 4 4 3 2 1 2 4 3 3 4 4 4 5 6 7 4 3 2 3 3 3 4 4 5 9 6 9 3 3
7 5 3 1 1 3 3 1 3 4 5 5 2 1 2 2 3 4 4 4 2 2 3 4 5 6 6 8 8 9 5 3 5
8 6 4 2 2 4 4 3 1 3 4 4 3 1 2 4 3 2 2 3 3 3 3 4 5 6 6 5 6 6 6 8 12
4 1 4 2 2 2 2 1 2 2 3 3 4 4 5 5 7 7 7 7 7 5 4 5 6 6 6 6 4 4 8 6 5
3 0 3 4 3 4 3 1 3 4 3 3 4 4 4 4 4 5 5 4 4 4 5 5 4 5 7 6 4 4 3 2 1
3 3 3 3 3 3 2 1 4 4 4 4 5 4 3 3 2 3 3 3 4 3 3 3 4 3 6 7 5 5 3 3 1
5 4 3 1 0 2 1 2 4 4 4 5 5 4 2 2 3 3 3 3 1 3 3 3 4 2 1 5 6 9 2 5 5
5 5 4 2 3 4 4 4 3 1 3 4 4 4 2 1 3 2 3 4 4 3 4 4 4 1 3 4 5 9 1 6 8
Wind_Direction
188 208 217 216 220 216 214 211 208 205 204 207 201 201 205 205 207 216 223 229 244 247 244 262 241 211 215 219 221 214 213 224 223
171 200 200 212 235 234 234 222 209 209 208 210 204 205 203 204 209 216 221 224 232 237 244 259 240 225 213 211 218 227 215 228 226
97 107 126 180 246 238 232 234 224 220 213 215 210 209 206 204 208 215 218 217 222 232 245 238 228 223 228 216 216 221 225 234 226
63 76 177 273 266 245 238 237 230 219 221 219 213 210 211 209 203 209 218 220 221 222 230 228 237 238 230 230 232 227 223 238 241
2 350 315 273 260 250 232 233 222 221 219 222 219 214 217 215 214 208 214 223 227 229 233 222 219 227 238 241 232 234 228 226 229
53 11 4 340 325 276 252 255 235 223 222 226 217 213 220 222 219 222 228 229 232 233 239 239 234 230 232 232 236 236 236 232 230
28 12 5 12 22 4 326 271 232 236 234 227 222 218 215 224 219 216 208 211 214 220 220 235 243 242 244 243 243 235 238 237 244
50 34 25 28 30 14 360 360 357 327 254 238 230 223 222 224 222 210 205 191 184 191 209 221 237 253 248 251 257 256 242 239 239
89 74 58 29 15 20 20 17 24 28 31 27 346 258 234 207 195 190 172 155 124 157 191 191 219 213 229 219 220 283 264 263 254
107 92 84 83 69 51 45 53 42 34 26 13 40 72 80 106 130 118 44 88 171 41 290 256 190 197 189 208 203 194 224 247 265
107 112 105 98 95 87 58 36 35 36 42 38 102 114 113 124 161 201 187 172 181 203 221 213 245 250 246 255 259 104 220 255 273
136 113 111 98 95 89 81 55 54 73 66 52 91 191 221 229 226 235 222 210 194 217 222 145 238 286 290 312 311 81 289 130 266
195 169 116 108 111 110 88 72 34 23 52 33 346 321 312 296 301 286 283 286 306 330 330 315 264 268 306 276 268 238 242 165 268
187 174 190 192 315 348 345 332 356 354 351 42 51 232 226 256 246 267 276 291 294 303 293 310 327 318 299 285 283 300 302 287 264
165 168 164 192 258 292 302 322 320 329 336 6 44 66 310 313 321 319 315 310 325 328 313 306 295 289 286 273 279 238 246 245 241
175 135 91 141 254 250 285 299 215 289 319 322 339 335 331 335 344 345 348 340 333 318 304 300 306 303 300 302 302 276 196 248 258
230 32 84 108 92 66 57 122 207 239 286 286 278 304 332 347 344 351 353 349 347 334 319 315 309 319 319 329 320 316 310 324 302
184 149 117 88 89 92 62 272 253 247 243 247 274 304 328 348 336 331 352 2 354 342 340 358 310 330 327 326 338 8 348 16 122
154 154 145 166 70 300 277 247 244 233 216 214 235 248 263 321 312 326 356 13 94 88 100 53 41 55 282 317 302 333 111 93 116
143 152 169 137 27 339 296 243 237 182 192 216 237 249 273 267 275 353 11 8 11 335 163 166 114 61 40 29 338 340 220 111 108